This is the latest recevied weather packets stored in our database for station/object AC1IX. If no packets are shown the sender has not sent any weather packets the latest 10 day(s).
| Time | Temp. | Humidity | Pressure | Rain* | Wind** | Luminosity | Snow |
|---|---|---|---|---|---|---|---|
| 1777539903 | 7.78° C | 99% | 1007.7 hPa | 0 mm | - | 0 W/m² | - |
| 1777539601 | 7.78° C | 99% | 1007.8 hPa | 0 mm | - | 0 W/m² | - |
| 1777539296 | 7.78° C | 99% | 1007.7 hPa | 0 mm | - | 0 W/m² | - |
| 1777538994 | 7.78° C | 99% | 1007.7 hPa | 0 mm | - | 0 W/m² | - |
| 1777538689 | 7.78° C | 99% | 1007.9 hPa | 0 mm | - | 0 W/m² | - |
| 1777538384 | 7.78° C | 99% | 1007.8 hPa | 0 mm | - | 0 W/m² | - |
| 1777538081 | 7.78° C | 99% | 1007.7 hPa | 1.27 mm | - | 0 W/m² | - |
| 1777537775 | 7.78° C | 99% | 1007.9 hPa | 1.27 mm | - | 0 W/m² | - |
| 1777537473 | 7.78° C | 99% | 1007.7 hPa | 1.78 mm | - | 0 W/m² | - |
| 1777537169 | 7.78° C | 99% | 1007.7 hPa | 1.78 mm | - | 0 W/m² | - |
| 1777536864 | 7.78° C | 99% | 1007.8 hPa | 1.27 mm | - | 0 W/m² | - |
| 1777536563 | 7.78° C | 99% | 1007.8 hPa | 4.32 mm | - | 0 W/m² | - |
| 1777536259 | 7.78° C | 99% | 1007.5 hPa | 4.83 mm | - | 0 W/m² | - |
| 1777535955 | 7.78° C | 99% | 1008 hPa | 3.05 mm | - | 0 W/m² | - |
| 1777535651 | 7.78° C | 99% | 1007.8 hPa | 4.83 mm | - | 0 W/m² | - |
| 1777535349 | 7.78° C | 99% | 1007.8 hPa | 3.05 mm | - | 0 W/m² | - |
| 1777535045 | 7.78° C | 99% | 1007.8 hPa | 1.27 mm | - | 0 W/m² | - |
| 1777534742 | 8.33° C | 99% | 1008.2 hPa | 1.78 mm | - | 0 W/m² | - |
| 1777534439 | 8.33° C | 99% | 1008.3 hPa | 3.56 mm | - | 0 W/m² | - |
| 1777534136 | 8.33° C | 99% | 1008.5 hPa | 3.05 mm | - | 0 W/m² | - |
| 1777533834 | 8.33° C | 99% | 1008.5 hPa | 1.27 mm | - | 0 W/m² | - |
| 1777533530 | 8.33° C | 99% | 1008.3 hPa | 0 mm | - | 0 W/m² | - |
| 1777533226 | 8.33° C | 99% | 1008.2 hPa | 1.78 mm | - | 0 W/m² | - |
| 1777532923 | 8.33° C | 99% | 1007.8 hPa | 3.05 mm | - | 0 W/m² | - |
| 1777532620 | 8.33° C | 99% | 1007.5 hPa | 1.27 mm | - | 0 W/m² | - |
* Rain latest hour (hover to see other rain measurements)
** Current wind speed in m/s (hover to see current wind gust speed)